| time (UTC) | temp F | wind direction | speed knots | gust knots | rain 1hr in | rain 24hr in | rain mn in | humidity % | barometer mb |
| 20260510151537 | 80 | 275 | 0.9 | 6.1 | 0.00 | 0.02 | 0.01 | 63 | 1016.8 |
| 20260510151019 | 80 | 0 | 0.0 | 3.5 | 0.00 | 0.02 | 0.01 | 63 | 1016.7 |
| 20260510150519 | 79 | 0 | 0.0 | 2.6 | 0.00 | 0.02 | 0.01 | 63 | 1016.7 |
| 20260510150048 | 79 | 0 | 0.0 | 5.2 | 0.00 | 0.02 | 0.01 | 64 | 1016.7 |
| 20260510145520 | 79 | 16 | 0.9 | 6.1 | 0.00 | 0.02 | 0.01 | 63 | 1016.7 |
| 20260510145018 | 78 | 0 | 0.0 | 6.1 | 0.00 | 0.02 | 0.01 | 68 | 1016.6 |
| 20260510144543 | 78 | 0 | 0.9 | 6.1 | 0.00 | 0.02 | 0.01 | 66 | 1016.7 |
| 20260510144018 | 78 | 0 | 0.9 | 3.5 | 0.00 | 0.02 | 0.01 | 67 | 1016.6 |
| 20260510143522 | 78 | 105 | 0.9 | 3.5 | 0.00 | 0.02 | 0.01 | 68 | 1016.6 |
| 20260510143037 | 77 | 0 | 0.0 | 1.7 | 0.00 | 0.02 | 0.01 | 73 | 1016.6 |
| 20260510142519 | 77 | 0 | 0.0 | 1.7 | 0.00 | 0.02 | 0.01 | 73 | 1016.5 |
| 20260510142020 | 76 | 82 | 0.0 | 1.7 | 0.00 | 0.02 | 0.01 | 73 | 1016.5 |
| 20260510141536 | 75 | 42 | 0.0 | 1.7 | 0.00 | 0.02 | 0.01 | 76 | 1016.5 |
| 20260510141020 | 75 | 0 | 0.0 | 7.0 | 0.00 | 0.02 | 0.01 | 76 | 1016.5 |
| 20260510140519 | 74 | 277 | 0.9 | 7.0 | 0.00 | 0.02 | 0.01 | 76 | 1016.5 |
| 20260510140035 | 74 | 287 | 0.9 | 7.0 | 0.00 | 0.02 | 0.01 | 77 | 1016.5 |
| 20260510135522 | 73 | 0 | 0.0 | 2.6 | 0.00 | 0.02 | 0.01 | 79 | 1016.5 |
| 20260510135020 | 73 | 0 | 0.0 | 5.2 | 0.00 | 0.02 | 0.01 | 80 | 1016.5 |
| 20260510134535 | 72 | 0 | 0.0 | 5.2 | 0.00 | 0.02 | 0.01 | 81 | 1016.6 |
| 20260510134023 | 71 | 271 | 0.0 | 2.6 | 0.00 | 0.02 | 0.01 | 84 | 1016.6 |
| 20260510133519 | 71 | 284 | 0.0 | 3.5 | 0.00 | 0.02 | 0.01 | 86 | 1016.6 |
| 20260510133039 | 70 | 0 | 0.9 | 3.5 | 0.00 | 0.02 | 0.01 | 87 | 1016.6 |
| 20260510132519 | 69 | 0 | 0.0 | 0.9 | 0.00 | 0.02 | 0.01 | 90 | 1016.5 |
| 20260510132020 | 68 | 0 | 0.0 | 0.9 | 0.00 | 0.02 | 0.01 | 91 | 1016.4 |
| 20260510131532 | 68 | 0 | 0.0 | 2.6 | 0.00 | 0.02 | 0.01 | 93 | 1016.4 |
| 20260510131025 | 67 | 0 | 0.0 | 2.6 | 0.00 | 0.02 | 0.01 | 94 | 1016.4 |
| 20260510130522 | 67 | 0 | 0.0 | 1.7 | 0.00 | 0.02 | 0.01 | 94 | 1016.3 |
| 20260510130038 | 66 | 0 | 0.0 | 1.7 | 0.00 | 0.02 | 0.01 | 95 | 1016.3 |
| 20260510125524 | 66 | 0 | 0.0 | 1.7 | 0.00 | 0.02 | 0.01 | 95 | 1016.5 |
| 20260510125021 | 65 | 0 | 0.0 | 3.5 | 0.00 | 0.02 | 0.01 | 95 | 1016.4 |
| 20260510124536 | 65 | 263 | 0.0 | 3.5 | 0.00 | 0.02 | 0.01 | 95 | 1016.4 |
| 20260510124019 | 65 | 5 | 0.0 | 2.6 | 0.00 | 0.02 | 0.01 | 95 | 1016.4 |
| 20260510123523 | 64 | 0 | 0.0 | 2.6 | 0.00 | 0.02 | 0.01 | 95 | 1016.4 |
| 20260510123036 | 64 | 0 | 0.0 | 3.5 | 0.00 | 0.02 | 0.01 | 95 | 1016.3 |
| 20260510122521 | 64 | 315 | 0.0 | 3.5 | 0.00 | 0.02 | 0.01 | 95 | 1016.3 |
| 20260510122020 | 64 | 308 | 0.0 | 0.0 | 0.00 | 0.02 | 0.01 | 95 | 1016.4 |
| 20260510121539 | 64 | 0 | 0.0 | 0.0 | 0.00 | 0.02 | 0.01 | 94 | 1016.4 |
| 20260510121022 | 63 | 0 | 0.0 | 0.0 | 0.00 | 0.02 | 0.01 | 94 | 1016.2 |
| 20260510120526 | 63 | 0 | 0.0 | 0.0 | 0.00 | 0.02 | 0.01 | 94 | 1016.2 |
| 20260510120038 | 63 | 0 | 0.0 | 0.0 | 0.00 | 0.02 | 0.01 | 94 | 1016.1 |
| 20260510115520 | 63 | 0 | 0.0 | 0.0 | 0.00 | 0.03 | 0.01 | 94 | 1015.9 |
| 20260510115022 | 63 | 0 | 0.0 | 0.0 | 0.00 | 0.03 | 0.01 | 94 | 1016.0 |
| 20260510114537 | 63 | 0 | 0.0 | 0.0 | 0.00 | 0.03 | 0.01 | 94 | 1015.9 |
| 20260510114019 | 62 | 0 | 0.0 | 0.0 | 0.00 | 0.03 | 0.01 | 94 | 1015.9 |
| 20260510113521 | 62 | 0 | 0.0 | 0.0 | 0.00 | 0.03 | 0.01 | 94 | 1015.6 |
| 20260510113041 | 62 | 0 | 0.0 | 0.0 | 0.00 | 0.03 | 0.01 | 93 | 1015.6 |
| 20260510112521 | 62 | 0 | 0.0 | 0.0 | 0.00 | 0.03 | 0.01 | 93 | 1015.6 |
| 20260510112023 | 62 | 0 | 0.0 | 0.0 | 0.00 | 0.03 | 0.01 | 93 | 1015.6 |
| 20260510111536 | 62 | 0 | 0.0 | 0.0 | 0.00 | 0.03 | 0.01 | 93 | 1015.6 |
| 20260510111020 | 62 | 0 | 0.0 | 0.0 | 0.00 | 0.03 | 0.01 | 93 | 1015.3 |
| 20260510110520 | 62 | 0 | 0.0 | 0.0 | 0.00 | 0.03 | 0.01 | 93 | 1015.3 |
| 20260510110047 | 62 | 0 | 0.0 | 0.0 | 0.00 | 0.03 | 0.01 | 92 | 1015.3 |
| 20260510105522 | 62 | 0 | 0.0 | 0.0 | 0.00 | 0.03 | 0.01 | 92 | 1015.1 |
| 20260510105020 | 62 | 0 | 0.0 | 0.0 | 0.00 | 0.03 | 0.01 | 92 | 1015.2 |
| 20260510104535 | 62 | 0 | 0.0 | 0.0 | 0.00 | 0.03 | 0.01 | 93 | 1015.0 |
| 20260510104021 | 62 | 0 | 0.0 | 0.0 | 0.00 | 0.03 | 0.01 | 93 | 1015.0 |
| 20260510103521 | 62 | 0 | 0.0 | 0.0 | 0.00 | 0.03 | 0.01 | 92 | 1014.9 |
| 20260510103043 | 62 | 0 | 0.0 | 0.0 | 0.00 | 0.03 | 0.01 | 92 | 1014.9 |
| 20260510102522 | 62 | 0 | 0.0 | 0.0 | 0.00 | 0.03 | 0.01 | 92 | 1014.8 |
| 20260510102021 | 62 | 0 | 0.0 | 0.0 | 0.00 | 0.03 | 0.01 | 92 | 1014.7 |
| 20260510101541 | 62 | 0 | 0.0 | 0.0 | 0.00 | 0.03 | 0.01 | 92 | 1014.5 |
| 20260510101022 | 62 | 0 | 0.0 | 0.0 | 0.00 | 0.03 | 0.01 | 92 | 1014.5 |
| 20260510100522 | 63 | 0 | 0.0 | 0.0 | 0.00 | 0.03 | 0.01 | 92 | 1014.5 |
| 20260510100047 | 63 | 0 | 0.0 | 0.0 | 0.00 | 0.03 | 0.01 | 92 | 1014.4 |
| 20260510095521 | 63 | 0 | 0.0 | 0.0 | 0.00 | 0.04 | 0.01 | 93 | 1014.5 |
| 20260510095021 | 63 | 0 | 0.0 | 0.0 | 0.00 | 0.04 | 0.01 | 93 | 1014.4 |
| 20260510094541 | 63 | 0 | 0.0 | 0.0 | 0.00 | 0.04 | 0.01 | 93 | 1014.4 |
| 20260510094022 | 63 | 0 | 0.0 | 0.0 | 0.00 | 0.04 | 0.01 | 93 | 1014.4 |
| 20260510093521 | 63 | 0 | 0.0 | 0.0 | 0.00 | 0.04 | 0.01 | 92 | 1014.4 |
| 20260510093039 | 63 | 0 | 0.0 | 0.0 | 0.00 | 0.04 | 0.01 | 93 | 1014.3 |
| 20260510092522 | 63 | 0 | 0.0 | 0.0 | 0.00 | 0.04 | 0.01 | 92 | 1014.3 |
| 20260510092021 | 63 | 0 | 0.0 | 0.0 | 0.00 | 0.04 | 0.01 | 92 | 1014.2 |
| 20260510091534 | 63 | 0 | 0.0 | 0.0 | 0.00 | 0.04 | 0.01 | 92 | 1014.0 |
| 20260510091020 | 63 | 0 | 0.0 | 0.0 | 0.00 | 0.04 | 0.01 | 92 | 1014.0 |
| 20260510090522 | 63 | 0 | 0.0 | 0.0 | 0.00 | 0.04 | 0.01 | 92 | 1014.0 |
| 20260510090035 | 63 | 0 | 0.0 | 0.0 | 0.00 | 0.04 | 0.01 | 92 | 1013.9 |
| 20260510085521 | 63 | 0 | 0.0 | 0.0 | 0.00 | 0.04 | 0.01 | 92 | 1013.8 |
| 20260510085021 | 63 | 0 | 0.0 | 0.0 | 0.00 | 0.04 | 0.01 | 92 | 1013.9 |
| 20260510084539 | 63 | 0 | 0.0 | 0.0 | 0.00 | 0.04 | 0.01 | 92 | 1013.9 |
| 20260510084020 | 63 | 0 | 0.0 | 0.0 | 0.00 | 0.04 | 0.01 | 92 | 1013.9 |
| 20260510083523 | 63 | 0 | 0.0 | 0.0 | 0.00 | 0.04 | 0.01 | 92 | 1013.8 |
| 20260510083036 | 63 | 0 | 0.0 | 0.0 | 0.00 | 0.04 | 0.01 | 92 | 1013.7 |
| 20260510082519 | 64 | 0 | 0.0 | 0.0 | 0.00 | 0.04 | 0.01 | 92 | 1013.6 |
| 20260510082021 | 64 | 0 | 0.0 | 0.0 | 0.00 | 0.04 | 0.01 | 92 | 1013.6 |
| 20260510081541 | 64 | 0 | 0.0 | 0.0 | 0.00 | 0.04 | 0.01 | 92 | 1013.6 |
| 20260510081022 | 64 | 0 | 0.0 | 0.0 | 0.00 | 0.04 | 0.01 | 92 | 1013.6 |
| 20260510080521 | 64 | 0 | 0.0 | 0.0 | 0.00 | 0.04 | 0.01 | 92 | 1013.7 |
| 20260510080051 | 64 | 0 | 0.0 | 0.0 | 0.00 | 0.04 | 0.01 | 92 | 1013.6 |
| 20260510075522 | 64 | 0 | 0.0 | 0.0 | 0.00 | 0.04 | 0.01 | 92 | 1013.5 |
| 20260510075022 | 64 | 0 | 0.0 | 0.0 | 0.00 | 0.04 | 0.01 | 92 | 1013.4 |
| 20260510074538 | 64 | 0 | 0.0 | 0.0 | 0.00 | 0.04 | 0.01 | 92 | 1013.4 |
| 20260510074021 | 64 | 0 | 0.0 | 0.0 | 0.00 | 0.04 | 0.01 | 91 | 1013.4 |
| 20260510073521 | 64 | 0 | 0.0 | 0.0 | 0.00 | 0.04 | 0.01 | 91 | 1013.6 |
| 20260510073047 | 64 | 0 | 0.0 | 0.0 | 0.01 | 0.04 | 0.01 | 91 | 1013.5 |
| 20260510072521 | 64 | 0 | 0.0 | 0.0 | 0.01 | 0.04 | 0.01 | 91 | 1013.5 |
| 20260510072022 | 64 | 0 | 0.0 | 0.0 | 0.01 | 0.04 | 0.01 | 91 | 1013.5 |
| 20260510071538 | 64 | 0 | 0.0 | 0.0 | 0.01 | 0.04 | 0.01 | 91 | 1013.5 |
| 20260510071021 | 64 | 0 | 0.0 | 0.0 | 0.01 | 0.04 | 0.01 | 91 | 1013.5 |
| 20260510070521 | 64 | 0 | 0.0 | 0.0 | 0.01 | 0.04 | 0.01 | 91 | 1013.5 |
| 20260510070046 | 64 | 0 | 0.0 | 0.0 | 0.01 | 0.04 | 0.01 | 91 | 1013.6 |
| 20260510065521 | 64 | 0 | 0.0 | 0.0 | 0.01 | 0.04 | 0.01 | 91 | 1013.4 |
| 20260510065021 | 64 | 0 | 0.0 | 0.0 | 0.01 | 0.04 | 0.01 | 91 | 1013.4 |
| 20260510064543 | 64 | 0 | 0.0 | 0.0 | 0.01 | 0.04 | 0.01 | 91 | 1013.3 |
| 20260510064020 | 64 | 0 | 0.0 | 0.0 | 0.01 | 0.04 | 0.01 | 90 | 1013.4 |
| 20260510063521 | 64 | 0 | 0.0 | 0.0 | 0.01 | 0.04 | 0.01 | 90 | 1013.3 |
| 20260510063038 | 64 | 0 | 0.0 | 0.0 | 0.00 | 0.03 | 0.00 | 90 | 1013.4 |
| 20260510062519 | 64 | 0 | 0.0 | 0.0 | 0.00 | 0.03 | 0.00 | 90 | 1013.4 |
| 20260510062020 | 64 | 0 | 0.0 | 0.0 | 0.00 | 0.03 | 0.00 | 90 | 1013.4 |
| 20260510061533 | 64 | 0 | 0.0 | 0.0 | 0.00 | 0.03 | 0.00 | 90 | 1013.4 |
| 20260510061019 | 64 | 0 | 0.0 | 0.0 | 0.00 | 0.03 | 0.00 | 89 | 1013.5 |
| 20260510060519 | 64 | 0 | 0.0 | 0.0 | 0.00 | 0.03 | 0.00 | 89 | 1013.5 |
| 20260510060041 | 64 | 0 | 0.0 | 0.0 | 0.00 | 0.03 | 0.00 | 89 | 1013.4 |
| 20260510055526 | 64 | 0 | 0.0 | 0.0 | 0.00 | 0.04 | 0.00 | 89 | 1013.5 |
| 20260510055018 | 64 | 0 | 0.0 | 0.0 | 0.00 | 0.04 | 0.00 | 89 | 1013.5 |
| 20260510054537 | 64 | 0 | 0.0 | 0.0 | 0.00 | 0.04 | 0.00 | 89 | 1013.7 |
| 20260510054022 | 65 | 0 | 0.0 | 0.0 | 0.00 | 0.04 | 0.00 | 89 | 1013.7 |
| 20260510053520 | 65 | 0 | 0.0 | 0.0 | 0.00 | 0.04 | 0.00 | 89 | 1013.7 |
| 20260510053037 | 65 | 0 | 0.0 | 0.0 | 0.00 | 0.04 | 0.00 | 89 | 1013.7 |
| 20260510052519 | 65 | 0 | 0.0 | 0.0 | 0.00 | 0.04 | 0.00 | 89 | 1013.7 |
| 20260510052022 | 65 | 0 | 0.0 | 0.0 | 0.00 | 0.04 | 0.00 | 89 | 1013.7 |
| 20260510051536 | 65 | 0 | 0.0 | 0.0 | 0.00 | 0.04 | 0.00 | 89 | 1013.7 |
| 20260510051018 | 65 | 0 | 0.0 | 0.0 | 0.00 | 0.04 | 0.00 | 88 | 1013.7 |
| 20260510050519 | 65 | 0 | 0.0 | 0.0 | 0.00 | 0.04 | 0.00 | 88 | 1013.8 |
| 20260510050037 | 65 | 0 | 0.0 | 0.0 | 0.00 | 0.04 | 0.00 | 88 | 1013.8 |
| 20260510045522 | 65 | 0 | 0.0 | 0.0 | 0.00 | 0.05 | 0.00 | 88 | 1013.8 |
| 20260510045019 | 65 | 0 | 0.0 | 0.0 | 0.00 | 0.05 | 0.00 | 88 | 1013.9 |
| 20260510044536 | 65 | 0 | 0.0 | 0.0 | 0.00 | 0.05 | 0.00 | 88 | 1013.8 |
| 20260510044019 | 65 | 0 | 0.0 | 0.0 | 0.00 | 0.05 | 0.00 | 88 | 1013.8 |
| 20260510043518 | 66 | 0 | 0.0 | 0.0 | 0.00 | 0.05 | 0.00 | 88 | 1013.8 |
| 20260510043034 | 66 | 0 | 0.0 | 0.0 | 0.00 | 0.05 | 0.00 | 88 | 1013.7 |
| 20260510042518 | 66 | 0 | 0.0 | 0.0 | 0.00 | 0.05 | 0.00 | 87 | 1013.8 |
| 20260510042020 | 66 | 0 | 0.0 | 0.0 | 0.00 | 0.05 | 0.00 | 87 | 1013.7 |
| 20260510041539 | 66 | 0 | 0.0 | 0.0 | 0.00 | 0.05 | 0.00 | 87 | 1013.8 |
| 20260510041023 | 66 | 0 | 0.0 | 0.0 | 0.00 | 0.05 | 0.00 | 87 | 1013.7 |
| 20260510040519 | 66 | 0 | 0.0 | 0.0 | 0.00 | 0.05 | 0.00 | 87 | 1013.7 |
| 20260510040038 | 66 | 0 | 0.0 | 0.0 | 0.00 | 0.05 | 0.00 | 86 | 1013.7 |
| 20260510035521 | 66 | 0 | 0.0 | 0.0 | 0.00 | 0.05 | 0.05 | 86 | 1013.7 |
| 20260510035019 | 66 | 0 | 0.0 | 0.0 | 0.00 | 0.05 | 0.05 | 86 | 1013.5 |
| 20260510034536 | 67 | 0 | 0.0 | 0.0 | 0.00 | 0.05 | 0.05 | 86 | 1013.7 |
| 20260510034022 | 67 | 0 | 0.0 | 0.0 | 0.00 | 0.05 | 0.05 | 86 | 1013.7 |
| 20260510033519 | 67 | 0 | 0.0 | 0.0 | 0.00 | 0.05 | 0.05 | 85 | 1013.6 |
| 20260510033046 | 67 | 0 | 0.0 | 0.0 | 0.00 | 0.05 | 0.05 | 85 | 1013.6 |
| 20260510032519 | 67 | 0 | 0.0 | 0.0 | 0.00 | 0.05 | 0.05 | 85 | 1013.5 |
| 20260510032019 | 67 | 0 | 0.0 | 0.0 | 0.00 | 0.05 | 0.05 | 85 | 1013.6 |
| 20260510031538 | 68 | 0 | 0.0 | 0.0 | 0.00 | 0.05 | 0.05 | 85 | 1013.7 |
| 20260510031019 | 68 | 0 | 0.0 | 0.0 | 0.00 | 0.05 | 0.05 | 85 | 1013.6 |
| 20260510030519 | 68 | 0 | 0.0 | 0.0 | 0.00 | 0.05 | 0.05 | 85 | 1013.6 |
| 20260510030034 | 68 | 0 | 0.0 | 0.0 | 0.00 | 0.05 | 0.05 | 84 | 1013.6 |
| 20260510025522 | 68 | 0 | 0.0 | 0.0 | 0.00 | 0.05 | 0.05 | 84 | 1013.6 |
| 20260510025020 | 68 | 0 | 0.0 | 0.0 | 0.00 | 0.05 | 0.05 | 84 | 1013.5 |
| 20260510024535 | 68 | 0 | 0.0 | 0.0 | 0.00 | 0.05 | 0.05 | 84 | 1013.5 |
| 20260510024022 | 68 | 0 | 0.0 | 0.0 | 0.00 | 0.05 | 0.05 | 84 | 1013.6 |
| 20260510023520 | 68 | 0 | 0.0 | 0.0 | 0.00 | 0.05 | 0.05 | 84 | 1013.6 |
| 20260510023036 | 69 | 0 | 0.0 | 0.0 | 0.00 | 0.05 | 0.05 | 84 | 1013.6 |
| 20260510022519 | 69 | 0 | 0.0 | 0.0 | 0.00 | 0.05 | 0.05 | 83 | 1013.6 |
| 20260510022019 | 69 | 0 | 0.0 | 0.0 | 0.00 | 0.05 | 0.05 | 83 | 1013.6 |
| 20260510021616 | 69 | 0 | 0.0 | 0.0 | 0.00 | 0.05 | 0.05 | 83 | 1013.6 |
| 20260510021019 | 69 | 0 | 0.0 | 0.0 | 0.00 | 0.05 | 0.05 | 83 | 1013.6 |
| 20260510020519 | 69 | 0 | 0.0 | 0.0 | 0.00 | 0.05 | 0.05 | 82 | 1013.6 |
| 20260510020035 | 69 | 0 | 0.0 | 0.0 | 0.00 | 0.05 | 0.05 | 82 | 1013.5 |
| 20260510015521 | 69 | 0 | 0.0 | 0.0 | 0.00 | 0.05 | 0.05 | 82 | 1013.4 |
| 20260510015018 | 69 | 0 | 0.0 | 0.0 | 0.00 | 0.05 | 0.05 | 82 | 1013.3 |
| 20260510014548 | 69 | 0 | 0.0 | 0.0 | 0.00 | 0.05 | 0.05 | 82 | 1013.3 |
| 20260510014020 | 70 | 0 | 0.0 | 0.0 | 0.00 | 0.05 | 0.05 | 82 | 1013.2 |
| 20260510013522 | 70 | 0 | 0.0 | 0.0 | 0.00 | 0.05 | 0.05 | 82 | 1013.2 |
| 20260510013033 | 70 | 0 | 0.0 | 0.0 | 0.00 | 0.05 | 0.05 | 81 | 1013.1 |
| 20260510012519 | 70 | 0 | 0.0 | 0.0 | 0.00 | 0.05 | 0.05 | 81 | 1013.0 |
| 20260510012019 | 70 | 0 | 0.0 | 0.0 | 0.00 | 0.05 | 0.05 | 81 | 1012.9 |
| 20260510011534 | 70 | 0 | 0.0 | 0.0 | 0.00 | 0.05 | 0.05 | 81 | 1013.1 |
| 20260510011021 | 70 | 0 | 0.0 | 0.0 | 0.00 | 0.05 | 0.05 | 80 | 1012.8 |
| 20260510010522 | 70 | 0 | 0.0 | 0.0 | 0.00 | 0.05 | 0.05 | 80 | 1012.7 |
| 20260510010043 | 70 | 0 | 0.0 | 0.0 | 0.00 | 0.05 | 0.05 | 80 | 1012.6 |
| 20260510005522 | 70 | 0 | 0.0 | 0.0 | 0.00 | 0.06 | 0.05 | 79 | 1012.5 |
| 20260510005022 | 70 | 0 | 0.0 | 0.0 | 0.00 | 0.06 | 0.05 | 79 | 1012.5 |
| 20260510004535 | 71 | 0 | 0.0 | 0.0 | 0.00 | 0.06 | 0.05 | 79 | 1012.5 |
| 20260510004019 | 71 | 0 | 0.0 | 0.0 | 0.00 | 0.06 | 0.05 | 78 | 1012.5 |
| 20260510003519 | 71 | 0 | 0.0 | 0.0 | 0.00 | 0.06 | 0.05 | 78 | 1012.3 |
| 20260510003036 | 71 | 0 | 0.0 | 0.0 | 0.00 | 0.06 | 0.05 | 78 | 1012.2 |
| 20260510002520 | 71 | 0 | 0.0 | 0.0 | 0.00 | 0.06 | 0.05 | 77 | 1012.1 |
| 20260510002019 | 72 | 0 | 0.0 | 0.0 | 0.00 | 0.06 | 0.05 | 76 | 1012.0 |
| 20260510001534 | 72 | 0 | 0.0 | 0.0 | 0.00 | 0.06 | 0.05 | 76 | 1011.9 |
| 20260510001022 | 72 | 0 | 0.0 | 0.0 | 0.00 | 0.06 | 0.05 | 76 | 1011.8 |
| 20260510000520 | 72 | 0 | 0.0 | 0.0 | 0.00 | 0.06 | 0.05 | 76 | 1011.8 |
| 20260510000036 | 72 | 0 | 0.0 | 0.0 | 0.00 | 0.06 | 0.05 | 75 | 1011.7 |
| 20260509235520 | 73 | 0 | 0.0 | 0.0 | 0.00 | 0.06 | 0.05 | 75 | 1011.6 |
| 20260509235019 | 73 | 0 | 0.0 | 0.0 | 0.00 | 0.06 | 0.05 | 75 | 1011.6 |
| 20260509234538 | 73 | 0 | 0.0 | 0.0 | 0.00 | 0.06 | 0.05 | 75 | 1011.6 |
| 20260509234021 | 73 | 0 | 0.0 | 0.0 | 0.00 | 0.06 | 0.05 | 75 | 1011.5 |
| 20260509233519 | 73 | 0 | 0.0 | 0.0 | 0.00 | 0.06 | 0.05 | 74 | 1011.4 |
| 20260509233036 | 73 | 0 | 0.0 | 0.0 | 0.00 | 0.06 | 0.05 | 74 | 1011.4 |
| 20260509232521 | 74 | 0 | 0.0 | 1.7 | 0.00 | 0.06 | 0.05 | 74 | 1011.2 |
| 20260509232019 | 74 | 0 | 0.0 | 1.7 | 0.00 | 0.06 | 0.05 | 73 | 1011.2 |
| 20260509231537 | 74 | 0 | 0.0 | 2.6 | 0.00 | 0.06 | 0.05 | 73 | 1011.3 |
| 20260509231019 | 74 | 0 | 0.0 | 2.6 | 0.00 | 0.06 | 0.05 | 73 | 1011.2 |
| 20260509230519 | 74 | 277 | 0.0 | 1.7 | 0.00 | 0.06 | 0.05 | 73 | 1011.3 |
| 20260509230040 | 74 | 0 | 0.0 | 1.7 | 0.00 | 0.06 | 0.05 | 73 | 1011.2 |
| 20260509225519 | 74 | 0 | 0.0 | 1.7 | 0.00 | 0.06 | 0.05 | 73 | 1011.1 |
| 20260509225018 | 74 | 0 | 0.0 | 3.5 | 0.00 | 0.06 | 0.05 | 72 | 1011.2 |
| 20260509224536 | 74 | 0 | 0.0 | 3.5 | 0.00 | 0.06 | 0.05 | 72 | 1011.2 |
| 20260509224019 | 75 | 273 | 0.0 | 0.9 | 0.00 | 0.06 | 0.05 | 73 | 1011.2 |
| 20260509223519 | 75 | 0 | 0.0 | 0.9 | 0.00 | 0.06 | 0.05 | 73 | 1011.1 |
| 20260509223032 | 75 | 0 | 0.0 | 0.9 | 0.00 | 0.06 | 0.05 | 73 | 1011.3 |
| 20260509222519 | 75 | 0 | 0.0 | 2.6 | 0.00 | 0.06 | 0.05 | 73 | 1011.3 |
| 20260509222019 | 75 | 0 | 0.0 | 2.6 | 0.00 | 0.06 | 0.05 | 73 | 1011.3 |
| 20260509221538 | 75 | 0 | 0.0 | 0.9 | 0.00 | 0.06 | 0.05 | 73 | 1011.2 |
| 20260509221021 | 75 | 0 | 0.0 | 1.7 | 0.01 | 0.06 | 0.05 | 73 | 1011.3 |
| 20260509220522 | 75 | 0 | 0.0 | 1.7 | 0.01 | 0.06 | 0.05 | 72 | 1011.1 |
| 20260509220039 | 75 | 208 | 0.0 | 1.7 | 0.01 | 0.06 | 0.05 | 72 | 1011.2 |
| 20260509215522 | 75 | 0 | 0.0 | 1.7 | 0.01 | 0.07 | 0.05 | 73 | 1011.1 |
| 20260509215019 | 75 | 0 | 0.0 | 0.9 | 0.01 | 0.07 | 0.05 | 73 | 1011.2 |
| 20260509214539 | 75 | 0 | 0.0 | 2.6 | 0.01 | 0.07 | 0.05 | 73 | 1011.4 |
| 20260509214019 | 75 | 0 | 0.0 | 3.5 | 0.01 | 0.07 | 0.05 | 73 | 1011.2 |
| 20260509213519 | 75 | 288 | 0.0 | 4.3 | 0.01 | 0.07 | 0.05 | 72 | 1011.2 |
| 20260509213037 | 75 | 283 | 0.0 | 5.2 | 0.01 | 0.07 | 0.05 | 73 | 1011.2 |
| 20260509212520 | 75 | 287 | 0.0 | 5.2 | 0.01 | 0.07 | 0.05 | 72 | 1011.2 |
| 20260509212022 | 76 | 294 | 0.9 | 5.2 | 0.01 | 0.07 | 0.05 | 72 | 1011.1 |
| 20260509211537 | 75 | 0 | 0.0 | 3.5 | 0.01 | 0.07 | 0.05 | 72 | 1011.1 |
| 20260509211019 | 75 | 0 | 0.0 | 4.3 | 0.00 | 0.06 | 0.04 | 72 | 1011.3 |
| 20260509210521 | 75 | 0 | 0.0 | 4.3 | 0.00 | 0.06 | 0.04 | 72 | 1011.3 |
| 20260509210040 | 75 | 89 | 0.0 | 2.6 | 0.00 | 0.06 | 0.04 | 72 | 1011.2 |
| 20260509205521 | 75 | 0 | 0.0 | 7.0 | 0.00 | 0.06 | 0.04 | 72 | 1011.2 |
| 20260509205019 | 75 | 0 | 0.0 | 7.8 | 0.00 | 0.06 | 0.04 | 73 | 1011.1 |
| 20260509204539 | 75 | 0 | 0.0 | 7.8 | 0.00 | 0.06 | 0.04 | 73 | 1011.2 |
| 20260509204020 | 75 | 261 | 0.9 | 7.8 | 0.00 | 0.06 | 0.04 | 73 | 1011.3 |
| 20260509203519 | 75 | 0 | 0.0 | 5.2 | 0.00 | 0.06 | 0.04 | 74 | 1011.3 |
| 20260509203036 | 75 | 0 | 0.0 | 0.0 | 0.00 | 0.06 | 0.04 | 74 | 1011.5 |
| 20260509202519 | 75 | 0 | 0.0 | 4.3 | 0.00 | 0.06 | 0.04 | 74 | 1011.5 |
| 20260509202021 | 74 | 0 | 0.0 | 4.3 | 0.00 | 0.06 | 0.04 | 73 | 1011.6 |
| 20260509201539 | 74 | 0 | 0.0 | 6.1 | 0.00 | 0.06 | 0.04 | 73 | 1011.6 |
| 20260509201019 | 74 | 256 | 0.0 | 7.0 | 0.00 | 0.06 | 0.04 | 73 | 1011.6 |
| 20260509200519 | 74 | 0 | 0.0 | 7.0 | 0.00 | 0.06 | 0.04 | 72 | 1011.6 |
| 20260509200039 | 75 | 0 | 0.0 | 7.0 | 0.00 | 0.06 | 0.04 | 72 | 1011.6 |
| 20260509195520 | 75 | 156 | 0.0 | 5.2 | 0.00 | 0.06 | 0.04 | 72 | 1011.6 |
| 20260509195019 | 75 | 0 | 0.0 | 5.2 | 0.00 | 0.06 | 0.04 | 72 | 1011.6 |
| 20260509194547 | 75 | 0 | 0.0 | 3.5 | 0.00 | 0.06 | 0.04 | 72 | 1011.6 |
| 20260509194019 | 75 | 0 | 0.0 | 3.5 | 0.00 | 0.06 | 0.04 | 72 | 1011.7 |
| 20260509193519 | 75 | 0 | 0.0 | 4.3 | 0.00 | 0.06 | 0.04 | 72 | 1011.7 |
| 20260509193040 | 75 | 347 | 0.0 | 4.3 | 0.00 | 0.06 | 0.04 | 72 | 1011.7 |
| 20260509192519 | 75 | 0 | 0.0 | 6.1 | 0.00 | 0.06 | 0.04 | 72 | 1011.8 |
| 20260509192019 | 75 | 0 | 0.9 | 6.1 | 0.00 | 0.06 | 0.04 | 72 | 1012.0 |
| 20260509191538 | 75 | 0 | 0.0 | 3.5 | 0.00 | 0.06 | 0.04 | 73 | 1012.0 |
| 20260509191023 | 75 | 259 | 0.0 | 3.5 | 0.00 | 0.06 | 0.04 | 72 | 1012.0 |
| 20260509190519 | 75 | 0 | 0.0 | 2.6 | 0.00 | 0.06 | 0.04 | 72 | 1012.1 |
| 20260509190037 | 75 | 0 | 0.0 | 3.5 | 0.00 | 0.06 | 0.04 | 72 | 1012.1 |
| 20260509185519 | 75 | 0 | 0.0 | 3.5 | 0.00 | 0.07 | 0.04 | 72 | 1012.2 |
| 20260509185019 | 75 | 289 | 0.0 | 7.0 | 0.00 | 0.07 | 0.04 | 71 | 1012.0 |
| 20260509184536 | 75 | 0 | 0.0 | 7.0 | 0.00 | 0.07 | 0.04 | 72 | 1012.1 |
| 20260509184020 | 75 | 0 | 0.9 | 7.0 | 0.00 | 0.07 | 0.04 | 72 | 1012.0 |
| 20260509183519 | 75 | 0 | 0.0 | 3.5 | 0.00 | 0.07 | 0.04 | 73 | 1012.1 |
| 20260509183036 | 74 | 0 | 0.0 | 3.5 | 0.00 | 0.07 | 0.04 | 73 | 1011.8 |
| 20260509182520 | 74 | 258 | 0.0 | 3.5 | 0.00 | 0.07 | 0.04 | 73 | 1012.1 |
| 20260509182022 | 74 | 0 | 0.0 | 2.6 | 0.00 | 0.07 | 0.04 | 73 | 1012.2 |
| 20260509181538 | 74 | 0 | 0.0 | 3.5 | 0.00 | 0.07 | 0.04 | 72 | 1012.2 |
| 20260509181021 | 74 | 0 | 0.0 | 6.1 | 0.00 | 0.07 | 0.04 | 72 | 1012.3 |
| 20260509180518 | 74 | 279 | 0.0 | 6.1 | 0.00 | 0.07 | 0.04 | 72 | 1012.3 |
| 20260509180049 | 74 | 323 | 0.0 | 6.1 | 0.00 | 0.07 | 0.04 | 72 | 1012.3 |
| 20260509175519 | 74 | 0 | 0.9 | 6.1 | 0.00 | 0.07 | 0.04 | 73 | 1012.5 |
| 20260509175019 | 74 | 0 | 0.0 | 4.3 | 0.00 | 0.07 | 0.04 | 73 | 1012.2 |
| 20260509174537 | 74 | 290 | 0.0 | 3.5 | 0.00 | 0.07 | 0.04 | 73 | 1012.1 |
| 20260509174019 | 74 | 0 | 0.0 | 7.0 | 0.00 | 0.07 | 0.04 | 72 | 1012.2 |
| 20260509173520 | 74 | 0 | 0.0 | 7.0 | 0.00 | 0.07 | 0.04 | 72 | 1012.2 |
| 20260509173041 | 74 | 265 | 0.9 | 5.2 | 0.00 | 0.07 | 0.04 | 72 | 1012.1 |
| 20260509172523 | 74 | 0 | 0.0 | 3.5 | 0.00 | 0.07 | 0.04 | 72 | 1012.1 |
| 20260509172021 | 74 | 186 | 0.9 | 5.2 | 0.00 | 0.07 | 0.04 | 72 | 1012.1 |
| 20260509171539 | 74 | 0 | 0.0 | 6.1 | 0.00 | 0.07 | 0.04 | 73 | 1012.3 |
| 20260509171020 | 74 | 0 | 0.9 | 6.1 | 0.00 | 0.07 | 0.04 | 73 | 1012.4 |
| 20260509170519 | 74 | 0 | 0.0 | 3.5 | 0.00 | 0.07 | 0.04 | 74 | 1012.3 |
| 20260509170038 | 74 | 290 | 0.0 | 4.3 | 0.00 | 0.07 | 0.04 | 75 | 1012.3 |
| 20260509165522 | 74 | 0 | 0.0 | 4.3 | 0.00 | 0.08 | 0.04 | 75 | 1012.5 |
| 20260509165019 | 74 | 0 | 0.0 | 7.0 | 0.00 | 0.08 | 0.04 | 74 | 1012.5 |
| 20260509164538 | 74 | 0 | 0.0 | 7.0 | 0.00 | 0.08 | 0.04 | 75 | 1012.6 |
| 20260509164021 | 73 | 0 | 0.9 | 7.0 | 0.00 | 0.08 | 0.04 | 75 | 1012.8 |
| 20260509163523 | 73 | 0 | 0.0 | 6.1 | 0.00 | 0.08 | 0.04 | 76 | 1012.8 |
| 20260509163040 | 73 | 0 | 0.0 | 5.2 | 0.00 | 0.08 | 0.04 | 76 | 1012.8 |
| 20260509162520 | 73 | 0 | 0.9 | 4.3 | 0.00 | 0.08 | 0.04 | 77 | 1012.8 |
| 20260509162022 | 72 | 0 | 0.0 | 4.3 | 0.00 | 0.08 | 0.04 | 78 | 1012.8 |
| 20260509161537 | 72 | 0 | 0.0 | 6.1 | 0.00 | 0.08 | 0.04 | 78 | 1012.8 |
| 20260509161019 | 72 | 0 | 0.0 | 6.1 | 0.00 | 0.08 | 0.04 | 80 | 1012.8 |
| 20260509160521 | 71 | 0 | 0.0 | 4.3 | 0.00 | 0.08 | 0.04 | 81 | 1012.9 |
| 20260509160040 | 71 | 286 | 0.0 | 3.5 | 0.00 | 0.08 | 0.04 | 82 | 1013.1 |
| 20260509155521 | 71 | 0 | 0.0 | 3.5 | 0.00 | 0.08 | 0.04 | 82 | 1013.2 |
| 20260509155021 | 70 | 0 | 0.0 | 3.5 | 0.00 | 0.08 | 0.04 | 82 | 1013.2 |
| 20260509154545 | 70 | 0 | 0.0 | 2.6 | 0.00 | 0.08 | 0.04 | 83 | 1013.3 |
| 20260509154022 | 70 | 0 | 0.0 | 1.7 | 0.00 | 0.08 | 0.04 | 83 | 1013.3 |
| 20260509153519 | 70 | 0 | 0.0 | 1.7 | 0.00 | 0.08 | 0.04 | 83 | 1013.3 |
| 20260509153051 | 69 | 0 | 0.0 | 1.7 | 0.00 | 0.08 | 0.04 | 84 | 1013.1 |
| 20260509152519 | 69 | 118 | 0.0 | 2.6 | 0.00 | 0.08 | 0.04 | 84 | 1013.0 |
| 20260509152019 | 69 | 0 | 0.0 | 2.6 | 0.00 | 0.08 | 0.04 | 84 | 1013.1 |